Powrót do katalogu

CENTISPACE-1 S10

AktywnyNawigacjaLEO
NORAD 62579·PAYLOAD·🇨🇳 China

Wystrzelony Jan 13, 2025 z Yellow Sea Launch Area

Loading…

Następne Przeloty (najbliższe 24 godziny)

TLE

ŚwieżeSource: Space-Track

Epoka: Sep 14, 2026, 14:48 UTC

1 62579U 25007E   26257.61707471 -.00000049  00000-0  86504-4 0  9999
2 62579  54.9909 338.7887 0009122 269.1599  90.8312 13.80623653 87089

Śledź CENTISPACE-1 S10 w czasie rzeczywistym z AllMySat

Download on the App Store